• în România
  • Lista ţărilor
  • Pe 7 zile
  • Temperatura apei
  • Hartă satelitară
  • Meteo pe hartă
  • Widget-uri
  • user-avatar
    Intrare

    Meteo pe oră la Algiers

    Astăzi, 28 Mai, Duminică

    Timp Temperatura Precipitaţii Vânt Presiune Umiditate
    00:00 +21°C° 0 mm 5 m/s 748 mmHg 77%
    01:00 +21°C° 0 mm 5 m/s 748 mmHg 75%
    02:00 +21°C° 0 mm 5 m/s 748 mmHg 74%
    03:00 +21°C° 0 mm 5 m/s 748 mmHg 72%
    04:00 +22°C° 0 mm 5 m/s 748 mmHg 67%
    05:00 +25°C° 0 mm 5 m/s 748 mmHg 61%
    06:00 +26°C° 0 mm 5 m/s 748 mmHg 55%
    07:00 +29°C° 0 mm 5 m/s 748 mmHg 47%
    08:00 +32°C° 0 mm 5 m/s 748 mmHg 40%
    09:00 +35°C° 0 mm 5 m/s 748 mmHg 32%
    10:00 +36°C° 0 mm 6 m/s 748 mmHg 31%
    11:00 +38°C° 0 mm 6 m/s 748 mmHg 30%
    12:00 +39°C° 0 mm 6 m/s 747 mmHg 29%
    13:00 +38°C° 0 mm 7 m/s 747 mmHg 31%
    14:00 +38°C° 0 mm 7 m/s 747 mmHg 33%
    15:00 +36°C° 0 mm 7 m/s 747 mmHg 35%
    16:00 +34°C° 0 mm 7 m/s 746 mmHg 41%
    17:00 +33°C° 0 mm 6 m/s 746 mmHg 47%
    18:00 +30°C° 0 mm 6 m/s 746 mmHg 53%
    19:00 +28°C° 0 mm 6 m/s 746 mmHg 60%
    20:00 +26°C° 0 mm 5 m/s 747 mmHg 66%
    21:00 +23°C° 0 mm 5 m/s 747 mmHg 73%
    22:00 +23°C° 0 mm 4 m/s 747 mmHg 71%
    23:00 +23°C° 0 mm 4 m/s 747 mmHg 70%

    Mâine, 29 Mai, Luni

    Timp Temperatura Precipitaţii Vânt Presiune Umiditate
    00:00 +23°C° 0 mm 4 m/s 747 mmHg 68%
    01:00 +22°C° 0 mm 3 m/s 746 mmHg 68%
    02:00 +22°C° 0 mm 3 m/s 746 mmHg 68%
    03:00 +23°C° 0 mm 2 m/s 746 mmHg 68%
    04:00 +22°C° 0 mm 3 m/s 746 mmHg 69%
    05:00 +23°C° 0 mm 4 m/s 747 mmHg 70%
    06:00 +23°C° 0 mm 5 m/s 747 mmHg 71%
    07:00 +25°C° 0 mm 5 m/s 747 mmHg 67%
    08:00 +27°C° 0 mm 5 m/s 747 mmHg 63%
    09:00 +28°C° 0 mm 5 m/s 747 mmHg 59%
    10:00 +29°C° 0 mm 5 m/s 747 mmHg 58%
    11:00 +29°C° 0 mm 5 m/s 747 mmHg 57%
    12:00 +30°C° 0 mm 5 m/s 747 mmHg 56%
    13:00 +29°C° 0 mm 5 m/s 747 mmHg 61%
    14:00 +28°C° 0 mm 4 m/s 747 mmHg 67%
    15:00 +27°C° 0 mm 4 m/s 746 mmHg 72%
    16:00 +26°C° 0,1 mm 4 m/s 746 mmHg 76%
    17:00 +25°C° 0,1 mm 4 m/s 746 mmHg 79%
    18:00 +23°C° 0,1 mm 4 m/s 746 mmHg 83%
    19:00 +22°C° 0,2 mm 3 m/s 747 mmHg 86%
    20:00 +22°C° 0,2 mm 3 m/s 747 mmHg 88%
    21:00 +21°C° 0,2 mm 3 m/s 748 mmHg 91%
    22:00 +21°C° 0,9 mm 3 m/s 748 mmHg 92%
    23:00 +21°C° 0,9 mm 3 m/s 748 mmHg 93%

    Poimâine, 30 Mai, Marţi

    Timp Temperatura Precipitaţii Vânt Presiune Umiditate
    00:00 +20°C° 0,9 mm 3 m/s 747 mmHg 94%
    01:00 +21°C° 0,6 mm 3 m/s 747 mmHg 94%
    02:00 +21°C° 0,6 mm 4 m/s 747 mmHg 94%
    03:00 +21°C° 0,6 mm 4 m/s 747 mmHg 95%
    04:00 +21°C° 0,3 mm 3 m/s 748 mmHg 94%
    05:00 +21°C° 0,3 mm 3 m/s 748 mmHg 93%
    06:00 +21°C° 0,3 mm 2 m/s 748 mmHg 92%
    07:00 +23°C° 0,3 mm 2 m/s 748 mmHg 87%
    08:00 +24°C° 0,3 mm 2 m/s 749 mmHg 81%
    09:00 +25°C° 0,3 mm 2 m/s 749 mmHg 76%
    10:00 +25°C° 0,2 mm 2 m/s 749 mmHg 71%
    11:00 +26°C° 0,2 mm 2 m/s 749 mmHg 66%
    12:00 +27°C° 0,2 mm 1 m/s 750 mmHg 61%
    13:00 +27°C° 0,1 mm 2 m/s 749 mmHg 57%
    14:00 +28°C° 0,1 mm 2 m/s 749 mmHg 54%
    15:00 +29°C° 0,1 mm 3 m/s 748 mmHg 51%
    16:00 +28°C° 0,2 mm 2 m/s 748 mmHg 56%
    17:00 +27°C° 0,2 mm 2 m/s 748 mmHg 60%
    18:00 +26°C° 0,2 mm 2 m/s 748 mmHg 65%
    19:00 +24°C° 0,6 mm 2 m/s 748 mmHg 71%
    20:00 +23°C° 0,6 mm 2 m/s 749 mmHg 76%
    21:00 +21°C° 0,6 mm 2 m/s 749 mmHg 82%
    22:00 +20°C° 0,1 mm 2 m/s 749 mmHg 82%
    23:00 +20°C° 0,1 mm 2 m/s 749 mmHg 82%

    31 Mai, Miercuri

    Timp Temperatura Precipitaţii Vânt Presiune Umiditate
    00:00 +20°C° 0,1 mm 2 m/s 749 mmHg 83%
    01:00 +20°C° 0 mm 2 m/s 749 mmHg 82%
    02:00 +19°C° 0 mm 2 m/s 749 mmHg 82%
    03:00 +19°C° 0 mm 2 m/s 749 mmHg 82%
    04:00 +21°C° 0 mm 1 m/s 749 mmHg 78%
    05:00 +22°C° 0 mm 1 m/s 749 mmHg 75%
    06:00 +23°C° 0 mm 1 m/s 749 mmHg 71%
    07:00 +25°C° 0 mm 1 m/s 749 mmHg 64%
    08:00 +27°C° 0 mm 1 m/s 750 mmHg 57%
    09:00 +28°C° 0 mm 1 m/s 750 mmHg 49%
    10:00 +29°C° 0 mm 2 m/s 750 mmHg 49%
    11:00 +30°C° 0 mm 2 m/s 750 mmHg 48%
    12:00 +30°C° 0 mm 3 m/s 750 mmHg 48%
    13:00 +30°C° 0,4 mm 3 m/s 749 mmHg 51%
    14:00 +29°C° 0,4 mm 3 m/s 749 mmHg 54%
    15:00 +29°C° 0,4 mm 3 m/s 749 mmHg 58%
    16:00 +28°C° 0 mm 3 m/s 749 mmHg 62%
    17:00 +27°C° 0 mm 2 m/s 749 mmHg 66%
    18:00 +26°C° 0 mm 2 m/s 749 mmHg 70%
    19:00 +25°C° 0 mm 2 m/s 749 mmHg 74%
    20:00 +24°C° 0 mm 1 m/s 750 mmHg 79%
    21:00 +23°C° 0 mm 1 m/s 750 mmHg 84%
    22:00 +22°C° 0,3 mm 1 m/s 750 mmHg 86%
    23:00 +22°C° 0,3 mm 1 m/s 750 mmHg 88%

    1 Iunie, Joi

    Timp Temperatura Precipitaţii Vânt Presiune Umiditate
    00:00 +21°C° 0,3 mm 1 m/s 749 mmHg 89%
    01:00 +21°C° 0,3 mm 1 m/s 749 mmHg 90%
    02:00 +20°C° 0,3 mm 1 m/s 749 mmHg 90%
    03:00 +20°C° 0,3 mm 1 m/s 749 mmHg 90%
    04:00 +22°C° 0 mm 1 m/s 749 mmHg 84%
    05:00 +23°C° 0 mm 1 m/s 749 mmHg 79%
    06:00 +24°C° 0 mm 2 m/s 749 mmHg 73%
    07:00 +26°C° 0 mm 2 m/s 749 mmHg 65%
    08:00 +28°C° 0 mm 2 m/s 750 mmHg 58%
    09:00 +30°C° 0 mm 3 m/s 750 mmHg 50%
    10:00 +31°C° 0 mm 3 m/s 750 mmHg 48%
    11:00 +32°C° 0 mm 4 m/s 749 mmHg 46%
    12:00 +33°C° 0 mm 4 m/s 749 mmHg 44%
    13:00 +33°C° 0 mm 4 m/s 749 mmHg 46%
    14:00 +32°C° 0 mm 4 m/s 749 mmHg 48%
    15:00 +32°C° 0 mm 4 m/s 749 mmHg 50%
    16:00 +30°C° 0 mm 4 m/s 749 mmHg 55%
    17:00 +29°C° 0 mm 4 m/s 749 mmHg 59%
    18:00 +27°C° 0 mm 4 m/s 749 mmHg 63%
    19:00 +26°C° 0 mm 4 m/s 749 mmHg 71%
    20:00 +24°C° 0 mm 3 m/s 749 mmHg 78%
    21:00 +21°C° 0 mm 3 m/s 750 mmHg 86%
    22:00 +21°C° 0,1 mm 3 m/s 749 mmHg 86%
    23:00 +21°C° 0,1 mm 3 m/s 749 mmHg 86%

    2 Iunie, Vineri

    Timp Temperatura Precipitaţii Vânt Presiune Umiditate
    00:00 +20°C° 0,1 mm 3 m/s 749 mmHg 86%
    01:00 +20°C° 0 mm 3 m/s 749 mmHg 86%
    02:00 +20°C° 0 mm 3 m/s 749 mmHg 87%
    03:00 +20°C° 0 mm 3 m/s 749 mmHg 87%
    04:00 +21°C° 0 mm 3 m/s 749 mmHg 81%
    05:00 +22°C° 0 mm 3 m/s 749 mmHg 75%
    06:00 +25°C° 0 mm 3 m/s 749 mmHg 70%
    07:00 +27°C° 0 mm 3 m/s 749 mmHg 63%
    08:00 +28°C° 0 mm 4 m/s 749 mmHg 56%
    09:00 +30°C° 0 mm 4 m/s 749 mmHg 49%
    10:00 +32°C° 0 mm 5 m/s 749 mmHg 47%
    11:00 +33°C° 0 mm 5 m/s 749 mmHg 45%
    12:00 +34°C° 0 mm 6 m/s 749 mmHg 43%
    13:00 +34°C° 0 mm 6 m/s 749 mmHg 44%
    14:00 +33°C° 0 mm 6 m/s 748 mmHg 45%
    15:00 +33°C° 0 mm 6 m/s 748 mmHg 46%
    16:00 +32°C° 0 mm 6 m/s 748 mmHg 50%
    17:00 +30°C° 0 mm 5 m/s 748 mmHg 54%
    18:00 +28°C° 0 mm 5 m/s 748 mmHg 59%
    19:00 +26°C° 0 mm 5 m/s 748 mmHg 66%
    20:00 +25°C° 0 mm 5 m/s 749 mmHg 73%
    21:00 +22°C° 0 mm 4 m/s 749 mmHg 80%
    22:00 +22°C° 0 mm 4 m/s 749 mmHg 81%
    23:00 +21°C° 0 mm 4 m/s 749 mmHg 81%
    Arată mai mult